Regional Weather Roundup
Issued by NWS

Home | Current Version | Previous Version | Graphics & Text | Print | Product List | Glossary On
Versions: 1 2 3 4 5 6 7 8 9 10 11 12 13 14 15 16 17 18 19 20 21 22 23 24 25 26 27 28 29 30 31 32 33 34 35 36 37 38 39 40 41 42 43 44 45 46 47 48 49 50
000
ASUS43 KLMK 251710
RWRKY
KENTUCKY REGIONAL WEATHER ROUNDUP
NATIONAL WEATHER SERVICE LOUISVILLE KY
100 PM EDT TUE APR 25 2017

NOTE "FAIR" INDICATES FEW OR NO CLOUDS BELOW 12,000 FEET
WITH NO SIGNIFICANT WEATHER AND/OR OBSTRUCTIONS TO VISIBILITY.

KYZ001>023-026-027-061>063-070>075-251800-
WESTERN AND SOUTH CENTRAL KENTUCKY

CITY           SKY/WX    TMP DP  RH WIND       PRES   REMARKS
PADUCAH        SUNNY     74  54  49 VRB5      29.71F
HENDERSON      MOSUNNY   73  56  54 S9        29.75F
OWENSBORO      SUNNY     73  57  57 SW7       29.76F
HOPKINSVILLE   SUNNY     71  55  56 SE9       29.76F
BOWLING GREEN  MOSUNNY   72  57  59 E5        29.78F
GLASGOW        MOSUNNY   73  55  54 E3        29.78F
$$

KYZ024-025-028>034-038-045-046-053-251800-
NORTH CENTRAL KENTUCKY

CITY           SKY/WX    TMP DP  RH WIND       PRES   REMARKS
LOUISVILLE/SDF PTSUNNY   72  55  55 CALM      29.77F
LOUISVILLE/LOU PTSUNNY   70  56  61 CALM      29.77F
FORT KNOX      MOSUNNY   71  56  59 E6        29.75F
$$

KYZ035>037-039>044-047>052-055>060-089>105-251800-
NORTHEAST KENTUCKY

CITY           SKY/WX    TMP DP  RH WIND       PRES   REMARKS
LEXINGTON      PTSUNNY   68  54  60 E6        29.78F
COVINGTON      PTSUNNY   69  55  60 E6        29.77F
FRANKFORT      CLOUDY    69  53  56 NE5       29.77F
$$

KYZ054-064>069-076>088-106>120-251800-
SOUTHEAST KENTUCKY

CITY           SKY/WX    TMP DP  RH WIND       PRES   REMARKS
JACKSON        CLOUDY    65  54  67 CALM      29.79F
LONDON         MOSUNNY   67  52  58 VRB3      29.78F
SOMERSET       CLOUDY    64  52  63 W5        29.80F
MIDDLESBORO    CLOUDY    67  56  66 CALM      29.78F
MONTICELLO     CLOUDY    66  53  63 CALM      29.81F
$$





USA.gov is the U.S. government's official web portal to all federal, state and local government web resources and services.